| time (UTC) | temp F | wind direction | speed MPH | gust MPH | rain 1hr in | rain 24hr in | rain mn in | humidity % | barometer mb |
| 20260506134604 | 57 | 310 | 2.0 | 5.0 | 0.00 | 0.17 | 0.09 | 65 | 1009.6 |
| 20260506134104 | 58 | 316 | 1.0 | 6.0 | 0.00 | 0.17 | 0.09 | 65 | 1009.6 |
| 20260506133603 | 57 | 331 | 2.0 | 7.0 | 0.00 | 0.17 | 0.09 | 67 | 1009.5 |
| 20260506133104 | 57 | 305 | 1.0 | 5.0 | 0.00 | 0.17 | 0.09 | 68 | 1009.5 |
| 20260506132604 | 56 | 342 | 2.0 | 7.0 | 0.00 | 0.17 | 0.09 | 68 | 1009.5 |
| 20260506132104 | 56 | 322 | 3.0 | 6.0 | 0.00 | 0.17 | 0.09 | 67 | 1009.6 |
| 20260506131604 | 56 | 315 | 1.0 | 6.0 | 0.00 | 0.17 | 0.09 | 67 | 1009.5 |
| 20260506130603 | 57 | 331 | 3.0 | 9.0 | 0.00 | 0.17 | 0.09 | 65 | 1009.4 |
| 20260506130105 | 58 | 333 | 1.0 | 5.0 | 0.00 | 0.17 | 0.09 | 62 | 1009.2 |
| 20260506125604 | 58 | 324 | 1.0 | 5.0 | 0.00 | 0.17 | 0.09 | 64 | 1009.2 |
| 20260506125104 | 57 | 319 | 3.0 | 7.0 | 0.00 | 0.17 | 0.09 | 66 | 1009.2 |
| 20260506124604 | 56 | 343 | 1.0 | 7.0 | 0.00 | 0.17 | 0.09 | 67 | 1009.2 |
| 20260506124104 | 56 | 352 | 3.0 | 10.0 | 0.00 | 0.17 | 0.09 | 66 | 1009.2 |
| 20260506123604 | 57 | 6 | 5.0 | 10.0 | 0.00 | 0.17 | 0.09 | 65 | 1009.1 |
| 20260506123105 | 58 | 340 | 3.0 | 7.0 | 0.00 | 0.17 | 0.09 | 63 | 1009.0 |
| 20260506122604 | 58 | 355 | 5.0 | 12.0 | 0.00 | 0.17 | 0.09 | 62 | 1009.0 |
| 20260506122105 | 57 | 320 | 1.0 | 6.0 | 0.00 | 0.17 | 0.09 | 65 | 1009.0 |
| 20260506121604 | 57 | 351 | 6.0 | 12.0 | 0.00 | 0.17 | 0.09 | 65 | 1009.1 |
| 20260506120604 | 57 | 2 | 2.0 | 6.0 | 0.00 | 0.17 | 0.09 | 66 | 1009.0 |
| 20260506120104 | 57 | 356 | 4.0 | 12.0 | 0.00 | 0.17 | 0.09 | 67 | 1009.1 |
| 20260506115604 | 57 | 317 | 3.0 | 8.0 | 0.00 | 0.17 | 0.09 | 65 | 1009.1 |
| 20260506114103 | 57 | 348 | 5.0 | 12.0 | 0.00 | 0.17 | 0.09 | 67 | 1009.1 |
| 20260506113104 | 56 | 346 | 6.0 | 14.0 | 0.00 | 0.17 | 0.09 | 68 | 1009.2 |
| 20260506112604 | 56 | 342 | 3.0 | 9.0 | 0.00 | 0.17 | 0.09 | 69 | 1009.2 |
| 20260506112105 | 56 | 343 | 7.0 | 14.0 | 0.00 | 0.17 | 0.09 | 69 | 1009.1 |
| 20260506111605 | 56 | 353 | 5.0 | 8.0 | 0.00 | 0.17 | 0.09 | 70 | 1009.1 |
| 20260506110605 | 56 | 337 | 5.0 | 12.0 | 0.00 | 0.17 | 0.09 | 69 | 1009.1 |
| 20260506105604 | 55 | 347 | 3.0 | 12.0 | 0.00 | 0.17 | 0.09 | 72 | 1009.0 |
| 20260506105103 | 55 | 329 | 3.0 | 9.0 | 0.00 | 0.17 | 0.09 | 72 | 1009.0 |
| 20260506104604 | 55 | 314 | 3.0 | 14.0 | 0.00 | 0.17 | 0.09 | 73 | 1009.0 |
| 20260506104104 | 55 | 352 | 3.0 | 9.0 | 0.00 | 0.17 | 0.09 | 73 | 1008.9 |
| 20260506103604 | 55 | 335 | 2.0 | 8.0 | 0.00 | 0.17 | 0.09 | 75 | 1009.0 |
| 20260506103105 | 55 | 350 | 4.0 | 8.0 | 0.00 | 0.17 | 0.09 | 74 | 1009.1 |
| 20260506102604 | 55 | 342 | 3.0 | 12.0 | 0.00 | 0.17 | 0.09 | 74 | 1009.0 |
| 20260506101604 | 54 | 338 | 5.0 | 13.0 | 0.00 | 0.17 | 0.09 | 75 | 1008.9 |
| 20260506101103 | 55 | 314 | 3.0 | 7.0 | 0.00 | 0.17 | 0.09 | 77 | 1008.8 |
| 20260506100104 | 54 | 339 | 3.0 | 12.0 | 0.00 | 0.17 | 0.09 | 78 | 1008.7 |
| 20260506095604 | 53 | 329 | 4.0 | 12.0 | 0.00 | 0.17 | 0.09 | 77 | 1008.7 |
| 20260506095104 | 53 | 342 | 5.0 | 8.0 | 0.00 | 0.17 | 0.09 | 79 | 1008.5 |
| 20260506094603 | 53 | 356 | 4.0 | 7.0 | 0.00 | 0.17 | 0.09 | 78 | 1008.6 |
| 20260506094104 | 53 | 341 | 7.0 | 13.0 | 0.00 | 0.17 | 0.09 | 78 | 1008.7 |
| 20260506093104 | 52 | 356 | 4.0 | 10.0 | 0.00 | 0.17 | 0.09 | 79 | 1008.7 |
| 20260506092104 | 52 | 338 | 6.0 | 15.0 | 0.00 | 0.17 | 0.09 | 80 | 1008.8 |
| 20260506091104 | 52 | 9 | 3.0 | 8.0 | 0.00 | 0.17 | 0.09 | 82 | 1008.7 |
| 20260506090604 | 52 | 20 | 2.0 | 7.0 | 0.00 | 0.17 | 0.09 | 82 | 1008.6 |
| 20260506090104 | 52 | 1 | 4.0 | 10.0 | 0.00 | 0.17 | 0.09 | 82 | 1008.6 |
| 20260506085604 | 52 | 16 | 3.0 | 10.0 | 0.00 | 0.17 | 0.09 | 82 | 1008.6 |
| 20260506085104 | 52 | 336 | 5.0 | 12.0 | 0.00 | 0.17 | 0.09 | 81 | 1008.5 |
| 20260506084604 | 51 | 358 | 6.0 | 8.0 | 0.00 | 0.17 | 0.09 | 83 | 1008.5 |
| 20260506084104 | 51 | 4 | 5.0 | 9.0 | 0.00 | 0.17 | 0.09 | 83 | 1008.5 |
| 20260506083604 | 51 | 354 | 3.0 | 7.0 | 0.00 | 0.17 | 0.09 | 84 | 1008.6 |
| 20260506083103 | 51 | 41 | 1.0 | 7.0 | 0.00 | 0.17 | 0.09 | 85 | 1008.5 |
| 20260506082603 | 51 | 16 | 4.0 | 7.0 | 0.00 | 0.17 | 0.09 | 84 | 1008.6 |
| 20260506082104 | 51 | 18 | 3.0 | 8.0 | 0.00 | 0.17 | 0.09 | 84 | 1008.5 |
| 20260506081603 | 51 | 19 | 3.0 | 8.0 | 0.00 | 0.17 | 0.09 | 84 | 1008.6 |
| 20260506081104 | 51 | 1 | 2.0 | 6.0 | 0.00 | 0.17 | 0.09 | 86 | 1008.5 |
| 20260506080603 | 50 | 358 | 5.0 | 10.0 | 0.00 | 0.17 | 0.09 | 85 | 1008.5 |
| 20260506080104 | 50 | 355 | 2.0 | 9.0 | 0.00 | 0.18 | 0.09 | 87 | 1008.4 |
| 20260506073105 | 49 | 353 | 8.0 | 14.0 | 0.00 | 0.18 | 0.09 | 88 | 1008.0 |
| 20260506072604 | 49 | 3 | 5.0 | 9.0 | 0.00 | 0.18 | 0.09 | 89 | 1007.9 |
| 20260506072104 | 49 | 353 | 3.0 | 8.0 | 0.00 | 0.18 | 0.09 | 90 | 1007.8 |
| 20260506071604 | 49 | 0 | 5.0 | 12.0 | 0.00 | 0.18 | 0.09 | 90 | 1007.8 |
| 20260506071104 | 49 | 347 | 2.0 | 9.0 | 0.00 | 0.18 | 0.09 | 90 | 1007.9 |
| 20260506070603 | 49 | 7 | 3.0 | 8.0 | 0.00 | 0.18 | 0.09 | 90 | 1007.8 |
| 20260506070103 | 49 | 351 | 3.0 | 7.0 | 0.00 | 0.18 | 0.09 | 90 | 1007.7 |
| 20260506062104 | 49 | 342 | 4.0 | 8.0 | 0.00 | 0.18 | 0.09 | 90 | 1007.4 |
| 20260506061604 | 49 | 342 | 2.0 | 9.0 | 0.00 | 0.18 | 0.09 | 91 | 1007.3 |
| 20260506060604 | 49 | 343 | 3.0 | 8.0 | 0.00 | 0.18 | 0.09 | 91 | 1007.2 |
| 20260506060104 | 49 | 352 | 3.0 | 8.0 | 0.00 | 0.18 | 0.09 | 91 | 1007.1 |
| 20260506051103 | 49 | 353 | 2.0 | 10.0 | 0.00 | 0.18 | 0.09 | 92 | 1006.6 |
| 20260506050104 | 49 | 1 | 5.0 | 12.0 | 0.01 | 0.18 | 0.09 | 92 | 1006.6 |
| 20260506045103 | 49 | 332 | 3.0 | 8.0 | 0.01 | 0.18 | 0.09 | 92 | 1006.5 |
| 20260506044104 | 49 | 357 | 3.0 | 7.0 | 0.01 | 0.18 | 0.09 | 92 | 1006.3 |
| 20260506043605 | 49 | 348 | 3.0 | 9.0 | 0.01 | 0.18 | 0.09 | 92 | 1006.4 |
| 20260506043104 | 49 | 344 | 3.0 | 13.0 | 0.01 | 0.18 | 0.09 | 93 | 1006.4 |
| 20260506042604 | 49 | 346 | 3.0 | 8.0 | 0.01 | 0.18 | 0.09 | 93 | 1006.4 |
| 20260506042104 | 49 | 339 | 3.0 | 8.0 | 0.01 | 0.18 | 0.09 | 93 | 1006.5 |
| 20260506041604 | 50 | 348 | 3.0 | 9.0 | 0.01 | 0.18 | 0.09 | 92 | 1006.5 |
| 20260506041103 | 50 | 344 | 2.0 | 6.0 | 0.01 | 0.18 | 0.09 | 93 | 1006.3 |
| 20260506040604 | 50 | 354 | 3.0 | 7.0 | 0.00 | 0.17 | 0.08 | 93 | 1006.4 |
| 20260506040104 | 50 | 341 | 3.0 | 9.0 | 0.01 | 0.17 | 0.08 | 93 | 1006.3 |
| 20260506035605 | 50 | 348 | 2.0 | 9.0 | 0.01 | 0.17 | 0.08 | 93 | 1006.3 |
| 20260506035104 | 50 | 358 | 4.0 | 8.0 | 0.01 | 0.17 | 0.08 | 93 | 1006.3 |
| 20260506034104 | 50 | 339 | 1.0 | 7.0 | 0.01 | 0.17 | 0.08 | 93 | 1006.3 |
| 20260506032603 | 50 | 352 | 1.0 | 5.0 | 0.02 | 0.17 | 0.08 | 93 | 1006.3 |
| 20260506032105 | 51 | 0 | 1.0 | 3.0 | 0.02 | 0.17 | 0.08 | 93 | 1006.3 |
| 20260506031605 | 51 | 357 | 2.0 | 3.0 | 0.02 | 0.17 | 0.08 | 93 | 1006.3 |
| 20260506031105 | 51 | 356 | 0.0 | 3.0 | 0.02 | 0.17 | 0.08 | 93 | 1006.3 |
| 20260506030605 | 50 | 358 | 0.0 | 3.0 | 0.02 | 0.17 | 0.08 | 93 | 1006.4 |
| 20260506030104 | 50 | 358 | 1.0 | 3.0 | 0.02 | 0.17 | 0.07 | 93 | 1006.4 |
| 20260506025604 | 50 | 0 | 1.0 | 6.0 | 0.02 | 0.17 | 0.07 | 93 | 1006.4 |
| 20260506025104 | 50 | 358 | 3.0 | 13.0 | 0.02 | 0.17 | 0.07 | 93 | 1006.5 |
| 20260506024103 | 50 | 0 | 5.0 | 9.0 | 0.03 | 0.17 | 0.07 | 93 | 1006.4 |
| 20260506023604 | 50 | 352 | 2.0 | 8.0 | 0.03 | 0.17 | 0.07 | 93 | 1006.5 |
| 20260506023104 | 51 | 350 | 4.0 | 9.0 | 0.02 | 0.16 | 0.06 | 93 | 1006.5 |
| 20260506022604 | 50 | 1 | 3.0 | 5.0 | 0.02 | 0.16 | 0.06 | 93 | 1006.5 |
| 20260506022104 | 50 | 353 | 2.0 | 7.0 | 0.02 | 0.16 | 0.06 | 93 | 1006.5 |
| 20260506020604 | 51 | 349 | 3.0 | 9.0 | 0.02 | 0.15 | 0.06 | 93 | 1006.5 |
| 20260506015605 | 51 | 348 | 1.0 | 7.0 | 0.02 | 0.14 | 0.05 | 93 | 1006.5 |
| 20260506015104 | 51 | 9 | 2.0 | 6.0 | 0.02 | 0.14 | 0.05 | 93 | 1006.4 |
| 20260506014604 | 51 | 354 | 2.0 | 5.0 | 0.02 | 0.14 | 0.05 | 93 | 1006.5 |
| 20260506014104 | 51 | 344 | 1.0 | 5.0 | 0.02 | 0.13 | 0.04 | 93 | 1006.5 |
| 20260506013105 | 51 | 357 | 2.0 | 5.0 | 0.02 | 0.13 | 0.04 | 93 | 1006.3 |
| 20260506012605 | 51 | 7 | 2.0 | 7.0 | 0.02 | 0.13 | 0.04 | 93 | 1006.3 |
| 20260506012104 | 51 | 0 | 6.0 | 10.0 | 0.02 | 0.13 | 0.04 | 93 | 1006.2 |
| 20260506011604 | 51 | 355 | 3.0 | 12.0 | 0.02 | 0.13 | 0.04 | 93 | 1006.4 |
| 20260506011104 | 51 | 345 | 4.0 | 9.0 | 0.02 | 0.13 | 0.04 | 93 | 1006.4 |
| 20260506010604 | 51 | 356 | 3.0 | 8.0 | 0.02 | 0.13 | 0.04 | 93 | 1006.2 |
| 20260506005604 | 51 | 349 | 3.0 | 7.0 | 0.01 | 0.13 | 0.03 | 93 | 1006.3 |
| 20260506005104 | 51 | 21 | 2.0 | 3.0 | 0.01 | 0.13 | 0.03 | 93 | 1006.3 |
| 20260506004104 | 52 | 22 | 2.0 | 7.0 | 0.00 | 0.12 | 0.02 | 92 | 1006.4 |
| 20260506003605 | 52 | 18 | 3.0 | 10.0 | 0.01 | 0.12 | 0.02 | 92 | 1006.3 |
| 20260506003104 | 52 | 348 | 3.0 | 14.0 | 0.01 | 0.12 | 0.02 | 92 | 1006.3 |
| 20260506002605 | 52 | 348 | 3.0 | 12.0 | 0.01 | 0.12 | 0.02 | 92 | 1006.4 |
| 20260506002104 | 52 | 351 | 2.0 | 8.0 | 0.02 | 0.12 | 0.02 | 92 | 1006.3 |
| 20260506001605 | 52 | 356 | 3.0 | 7.0 | 0.02 | 0.12 | 0.02 | 92 | 1006.4 |
| 20260506001104 | 52 | 356 | 2.0 | 6.0 | 0.02 | 0.12 | 0.02 | 92 | 1006.4 |
| 20260506000605 | 52 | 6 | 4.0 | 8.0 | 0.02 | 0.12 | 0.02 | 92 | 1006.4 |
| 20260506000104 | 52 | 349 | 3.0 | 8.0 | 0.02 | 0.12 | 0.02 | 92 | 1006.3 |
| 20260505235605 | 52 | 341 | 2.0 | 7.0 | 0.02 | 0.12 | 0.02 | 92 | 1006.4 |
| 20260505235104 | 52 | 351 | 2.0 | 5.0 | 0.02 | 0.12 | 0.02 | 92 | 1006.4 |
| 20260505233604 | 52 | 348 | 2.0 | 5.0 | 0.02 | 0.11 | 0.02 | 92 | 1006.5 |
| 20260505233106 | 53 | 348 | 1.0 | 3.0 | 0.02 | 0.11 | 0.02 | 93 | 1006.4 |
| 20260505232604 | 53 | 350 | 0.0 | 3.0 | 0.02 | 0.11 | 0.02 | 92 | 1006.5 |
| 20260505231604 | 53 | 348 | 0.0 | 3.0 | 0.01 | 0.10 | 0.01 | 92 | 1006.5 |
| 20260505231103 | 53 | 348 | 2.0 | 6.0 | 0.01 | 0.10 | 0.01 | 92 | 1006.5 |
| 20260505230604 | 53 | 350 | 0.0 | 3.0 | 0.01 | 0.10 | 0.01 | 92 | 1006.5 |
| 20260505230104 | 53 | 350 | 2.0 | 5.0 | 0.01 | 0.10 | 0.01 | 92 | 1006.6 |
| 20260505225104 | 53 | 348 | 2.0 | 6.0 | 0.01 | 0.10 | 0.01 | 92 | 1006.6 |
| 20260505224603 | 53 | 352 | 2.0 | 6.0 | 0.01 | 0.10 | 0.01 | 92 | 1006.6 |
| 20260505224104 | 53 | 352 | 1.0 | 5.0 | 0.01 | 0.10 | 0.01 | 92 | 1006.6 |
| 20260505223604 | 53 | 0 | 2.0 | 6.0 | 0.00 | 0.09 | 0.00 | 92 | 1006.5 |
| 20260505223105 | 53 | 7 | 1.0 | 6.0 | 0.00 | 0.09 | 0.00 | 92 | 1006.5 |
| 20260505222604 | 53 | 338 | 0.0 | 3.0 | 0.00 | 0.09 | 0.00 | 92 | 1006.3 |
| 20260505222104 | 53 | 340 | 4.0 | 8.0 | 0.00 | 0.09 | 0.00 | 92 | 1006.3 |
| 20260505221604 | 53 | 350 | 1.0 | 7.0 | 0.00 | 0.09 | 0.00 | 92 | 1006.4 |
| 20260505221105 | 53 | 347 | 0.0 | 5.0 | 0.00 | 0.09 | 0.00 | 92 | 1006.4 |
| 20260505220605 | 53 | 350 | 1.0 | 3.0 | 0.00 | 0.09 | 0.00 | 92 | 1006.3 |
| 20260505220105 | 53 | 351 | 1.0 | 6.0 | 0.00 | 0.09 | 0.00 | 92 | 1006.3 |
| 20260505215604 | 53 | 356 | 3.0 | 6.0 | 0.00 | 0.09 | 0.09 | 92 | 1006.4 |
| 20260505215104 | 53 | 357 | 1.0 | 8.0 | 0.00 | 0.09 | 0.09 | 92 | 1006.4 |
| 20260505214104 | 53 | 345 | 4.0 | 6.0 | 0.00 | 0.09 | 0.09 | 92 | 1006.4 |
| 20260505213603 | 53 | 348 | 3.0 | 6.0 | 0.00 | 0.09 | 0.09 | 92 | 1006.5 |
| 20260505213104 | 53 | 346 | 4.0 | 6.0 | 0.00 | 0.09 | 0.09 | 92 | 1006.5 |
| 20260505212603 | 53 | 345 | 1.0 | 6.0 | 0.00 | 0.09 | 0.09 | 92 | 1006.5 |
| 20260505212104 | 53 | 348 | 2.0 | 5.0 | 0.00 | 0.09 | 0.09 | 92 | 1006.6 |
| 20260505211604 | 53 | 349 | 3.0 | 6.0 | 0.00 | 0.09 | 0.09 | 92 | 1006.6 |
| 20260505211103 | 53 | 352 | 1.0 | 6.0 | 0.00 | 0.09 | 0.09 | 92 | 1006.6 |
| 20260505210603 | 53 | 353 | 1.0 | 5.0 | 0.00 | 0.09 | 0.09 | 92 | 1006.6 |
| 20260505210103 | 53 | 348 | 2.0 | 5.0 | 0.00 | 0.09 | 0.09 | 92 | 1006.6 |
| 20260505205604 | 53 | 345 | 1.0 | 7.0 | 0.00 | 0.09 | 0.09 | 92 | 1006.6 |
| 20260505205103 | 53 | 346 | 2.0 | 6.0 | 0.00 | 0.09 | 0.09 | 92 | 1006.6 |
| 20260505204104 | 53 | 354 | 3.0 | 6.0 | 0.01 | 0.09 | 0.09 | 92 | 1006.6 |
| 20260505203604 | 53 | 353 | 3.0 | 6.0 | 0.01 | 0.09 | 0.09 | 92 | 1006.6 |
| 20260505203103 | 53 | 339 | 2.0 | 8.0 | 0.01 | 0.09 | 0.09 | 92 | 1006.6 |
| 20260505202605 | 53 | 352 | 1.0 | 5.0 | 0.01 | 0.09 | 0.09 | 92 | 1006.6 |
| 20260505202103 | 53 | 351 | 1.0 | 7.0 | 0.01 | 0.09 | 0.09 | 92 | 1006.6 |
| 20260505201603 | 53 | 350 | 3.0 | 6.0 | 0.01 | 0.09 | 0.09 | 92 | 1006.5 |
| 20260505201104 | 53 | 356 | 2.0 | 7.0 | 0.01 | 0.09 | 0.09 | 92 | 1006.5 |
| 20260505200603 | 53 | 2 | 1.0 | 3.0 | 0.01 | 0.09 | 0.09 | 92 | 1006.5 |
| 20260505200104 | 53 | 2 | 1.0 | 3.0 | 0.01 | 0.09 | 0.09 | 92 | 1006.4 |
| 20260505195604 | 53 | 6 | 1.0 | 5.0 | 0.01 | 0.09 | 0.09 | 92 | 1006.4 |
| 20260505194603 | 54 | 354 | 3.0 | 6.0 | 0.00 | 0.09 | 0.09 | 92 | 1006.4 |
| 20260505194103 | 54 | 355 | 2.0 | 5.0 | 0.00 | 0.09 | 0.09 | 92 | 1006.3 |
| 20260505193604 | 54 | 0 | 1.0 | 5.0 | 0.00 | 0.09 | 0.09 | 92 | 1006.4 |
| 20260505193103 | 54 | 1 | 3.0 | 5.0 | 0.00 | 0.09 | 0.09 | 92 | 1006.3 |
| 20260505192604 | 54 | 6 | 0.0 | 3.0 | 0.00 | 0.09 | 0.09 | 92 | 1006.1 |
| 20260505192103 | 54 | 12 | 2.0 | 6.0 | 0.00 | 0.09 | 0.09 | 92 | 1006.0 |
| 20260505191603 | 54 | 23 | 3.0 | 9.0 | 0.00 | 0.09 | 0.09 | 92 | 1006.0 |
| 20260505191104 | 54 | 5 | 3.0 | 7.0 | 0.00 | 0.09 | 0.09 | 92 | 1006.0 |
| 20260505190603 | 54 | 3 | 4.0 | 6.0 | 0.00 | 0.09 | 0.09 | 92 | 1006.0 |
| 20260505185603 | 54 | 0 | 2.0 | 7.0 | 0.00 | 0.09 | 0.09 | 92 | 1006.0 |
| 20260505185103 | 54 | 3 | 2.0 | 7.0 | 0.00 | 0.09 | 0.09 | 92 | 1006.0 |
| 20260505184603 | 54 | 12 | 1.0 | 5.0 | 0.01 | 0.09 | 0.09 | 92 | 1005.9 |
| 20260505184103 | 54 | 21 | 1.0 | 7.0 | 0.01 | 0.09 | 0.09 | 92 | 1005.9 |
| 20260505183604 | 54 | 3 | 2.0 | 7.0 | 0.01 | 0.09 | 0.09 | 91 | 1005.8 |
| 20260505183103 | 54 | 12 | 3.0 | 8.0 | 0.01 | 0.09 | 0.09 | 91 | 1005.9 |
| 20260505182604 | 54 | 18 | 1.0 | 5.0 | 0.01 | 0.09 | 0.09 | 91 | 1005.8 |
| 20260505182104 | 54 | 12 | 2.0 | 6.0 | 0.01 | 0.09 | 0.09 | 91 | 1005.9 |
| 20260505181604 | 54 | 8 | 3.0 | 7.0 | 0.01 | 0.09 | 0.09 | 91 | 1005.9 |
| 20260505181103 | 54 | 6 | 3.0 | 8.0 | 0.01 | 0.09 | 0.09 | 91 | 1005.8 |
| 20260505180603 | 54 | 14 | 2.0 | 6.0 | 0.01 | 0.09 | 0.09 | 91 | 1005.9 |
| 20260505180103 | 54 | 15 | 4.0 | 6.0 | 0.01 | 0.09 | 0.09 | 91 | 1005.8 |
| 20260505175104 | 55 | 7 | 2.0 | 6.0 | 0.01 | 0.09 | 0.09 | 91 | 1005.9 |
| 20260505174603 | 55 | 17 | 2.0 | 9.0 | 0.00 | 0.09 | 0.08 | 91 | 1005.9 |
| 20260505174103 | 55 | 20 | 3.0 | 7.0 | 0.00 | 0.09 | 0.08 | 91 | 1005.8 |
| 20260505173603 | 55 | 14 | 3.0 | 7.0 | 0.00 | 0.09 | 0.08 | 91 | 1005.9 |
| 20260505172604 | 55 | 1 | 3.0 | 9.0 | 0.00 | 0.09 | 0.08 | 91 | 1005.9 |
| 20260505172103 | 55 | 22 | 2.0 | 9.0 | 0.00 | 0.09 | 0.08 | 91 | 1005.9 |
| 20260505171604 | 55 | 13 | 2.0 | 7.0 | 0.00 | 0.09 | 0.08 | 91 | 1005.9 |
| 20260505171104 | 55 | 8 | 2.0 | 6.0 | 0.00 | 0.09 | 0.08 | 91 | 1006.0 |
| 20260505170603 | 55 | 355 | 5.0 | 9.0 | 0.00 | 0.09 | 0.08 | 91 | 1006.0 |
| 20260505170103 | 55 | 12 | 0.0 | 7.0 | 0.00 | 0.09 | 0.08 | 92 | 1006.0 |
| 20260505165604 | 55 | 10 | 5.0 | 10.0 | 0.00 | 0.09 | 0.08 | 91 | 1006.0 |
| 20260505164603 | 55 | 2 | 2.0 | 7.0 | 0.00 | 0.09 | 0.08 | 92 | 1006.0 |
| 20260505163605 | 55 | 17 | 1.0 | 6.0 | 0.00 | 0.09 | 0.08 | 92 | 1006.0 |
| 20260505163104 | 55 | 9 | 5.0 | 10.0 | 0.00 | 0.09 | 0.08 | 92 | 1006.1 |
| 20260505162604 | 55 | 17 | 0.0 | 5.0 | 0.00 | 0.09 | 0.08 | 92 | 1006.1 |
| 20260505161104 | 55 | 2 | 4.0 | 8.0 | 0.01 | 0.09 | 0.08 | 91 | 1006.0 |
| 20260505160604 | 55 | 6 | 3.0 | 8.0 | 0.02 | 0.09 | 0.08 | 92 | 1006.0 |
| 20260505160103 | 55 | 346 | 4.0 | 9.0 | 0.02 | 0.09 | 0.08 | 92 | 1006.0 |
| 20260505153105 | 55 | 348 | 5.0 | 8.0 | 0.02 | 0.09 | 0.08 | 91 | 1005.9 |
| 20260505152604 | 55 | 357 | 3.0 | 12.0 | 0.02 | 0.09 | 0.08 | 92 | 1006.0 |
| 20260505152104 | 55 | 3 | 4.0 | 9.0 | 0.02 | 0.08 | 0.07 | 92 | 1006.1 |
| 20260505151603 | 55 | 2 | 5.0 | 12.0 | 0.02 | 0.08 | 0.07 | 92 | 1006.2 |
| 20260505151104 | 55 | 354 | 3.0 | 8.0 | 0.02 | 0.08 | 0.07 | 91 | 1006.1 |
| 20260505150604 | 55 | 31 | 2.0 | 7.0 | 0.02 | 0.07 | 0.06 | 92 | 1006.1 |
| 20260505150104 | 55 | 25 | 3.0 | 9.0 | 0.03 | 0.07 | 0.06 | 91 | 1006.1 |
| 20260505140603 | 55 | 350 | 5.0 | 8.0 | 0.02 | 0.05 | 0.04 | 91 | 1006.2 |
| 20260505140104 | 55 | 0 | 2.0 | 9.0 | 0.02 | 0.04 | 0.03 | 91 | 1006.2 |